TDRS 13 (42915 NORAD) Tracking and Keplerian Element Data

This shows tracking and keplerian element data for the satellite.

Feedback or suggestion? Click here.




ElementValue
Catalog42915
NameTDRS 13
Epoch Orbit820
Epoch Day316.83047461
Epoch Year2019
RAAN330.2434
Inclination5.9086
Eccentricity0.0010208
Argument of Perigee89.2388
Mean Anonmoly279.73
Mean Motion1.00272653
Decay Rate-9.3E-07
L11 42915U 17047A 19316.83047461 -.00000093 00000-0 00000-0 0 9996
L22 42915 5.9086 330.2434 0010208 89.2388 279.7300 1.00272653 8203

Live tracking and technical data element details for TDRS 13 (NORAD 42915). TDRS 13 can be tracked NOW for your location showing map with azimuth and elevation plus other details from your city location.

Track the satellite on the map from your city or location and see movement details for azimuth, elevation, latitude, longitude, range, height, and movement on the map or in text.







IsCatalogInMostPopularTable: catalog: 42915, numindb: 330
Update: records affected: 1



GetName: 42915 TDRS 13

Hit Count: updated at: Wed, 13 Nov 2019 17:09:28 GMT